Showing default

TJS-15, 63157

Orbit data source: Space-Track

TJS-15, 63157 is a payload satellite owned by PLA SSF (CN) in GEO that was launched on Sun, 09 Mar 2025 UTC via a CHANG ZHENG 3B launch vehicle from the Xichang Space Center, China (XSC). Payload-class satellites include a variety of spacecraft equipped with specific instruments for various scientific and technological missions. These include communications satellites like Starlink; space stations such as the ISS; scientific satellites like the Hubble; Earth observation satellites from companies like Planet Labs, Umbra, and HawkEye 360; GPS; miniature CubeSats for education and research; and military/defense satellites.

Not visible in the next 10 days
Identifier
63157, 2025-045A
Orbit
GEO
Country
Flag of CNCN / PRC
Related business
Manufacturer
SISE
Mission
Operational Defense Sigint
Bus & Motor
FY-4?, LAE
Mass
~5,000 kg wet, ~2,500 kg dry
Launch date (UTC)
2025-03-09 (1 year ago)
Launch vehicle
CHANG ZHENG 3B
Launch site
Xichang Space Center, China (XSC)
Object type
Payload
Rocket body
Debris
Shape & HBR
Box + 2 Pan, 22.5 m
Radar Cross Section
34.063 m², Large (>1 m²)

Expand to show TLE details & history
Last TLE update: 18 hours ago

TLE from 18 hours ago
0 TJS-15
1 63157U 25045A   26123.78272497 -.00000257  00000-0  00000+0 0  9992
2 63157   0.2735  84.5026 0006476 290.9299 222.4010  1.00274594  4310
Epoch: 2026-05-03T18:47Z
TLE epoch observation values (Epoch: 2026-05-03T18:47:07.437Z)
Latitude
0.10958°
Longitude
94.31555°
Altitude
35,805.596 km
Speed
3.073 km/s
True Right ascension
15h 51m 06s
True Declination
0° 06' 34"
Sunlit
Object was in daylight at epoch
Visualization orbit readout
Latitude
Unknown
Longitude
Unknown
Altitude
Unknown
Speed
Unknown
Apparent Right ascension
Unknown
Apparent Declination
Unknown
Sunlit
N/A
Visualization observer readout
Local Sidereal Time
20:22:51
Azimuth
Unknown
Elevation
Unknown
Doppler factor
Unknown
Orbital elements
Apogee altitude
35,814.184 km
Perigee altitude
35,759.572 km
Semi-major axis
42,165.015 km
Eccentricity
0.00065
Inclination
0.2735°
RAAN
84.5026°
Arg. of periapsis
290.9299°
True anomaly
222.35099°
Mean anomaly
222.401°
Eccentric anomaly
222.37599°
Mean motion
0.25068 °/min
Orbital period
1,436.11 mins
BSTAR
0
Loading maneuver chart data...
Computing Atmospheric mass density...
Loading historical data...
Loading historical data...
Loading historical data...
Loading historical data...
Loading historical data...
Loading historical data...
Loading historical data...
Other satellites on launch #45 in the year 2025 (2025-03-09 UTC)

Documentation

Showing up to 5 results
|